Time,TemperatureF,DewpointF,PressureIn,WindDirection,WindDirectionDegrees,WindSpeedMPH,WindSpeedGustMPH,Humidity,HourlyPrecipIn,Conditions,Clouds,dailyrainin,SoftwareType,DateUTC
2013-07-10 10:22:00,78.0,75.0,29.96,SW,225,0.0,3.0,90,0.00,,,0.00,,2013-07-10 14:22:00,
2013-07-10 10:53:00,80.0,75.0,29.96,SE,135,2.0,2.0,86,0.00,,,0.00,,2013-07-10 14:53:00,
2013-07-10 11:01:00,80.0,74.0,29.95,SW,225,0.0,7.0,83,0.00,,,0.00,,2013-07-10 15:01:00,
2013-07-10 11:11:00,80.0,74.0,29.95,SW,225,0.0,7.0,83,0.00,,,0.00,,2013-07-10 15:11:00,
2013-07-10 11:22:00,81.0,75.0,29.95,WSW,248,0.0,4.0,81,0.00,,,0.00,,2013-07-10 15:22:00,
2013-07-10 11:42:00,83.0,75.0,29.95,SW,225,0.0,0.0,78,0.00,,,0.00,,2013-07-10 15:42:00,
2013-07-10 11:52:00,83.0,75.0,29.95,SW,225,0.0,0.0,78,0.00,,,0.00,,2013-07-10 15:52:00,
2013-07-10 12:02:00,83.0,75.0,29.94,SE,135,0.0,6.0,77,0.00,,,0.00,,2013-07-10 16:02:00,
2013-07-10 12:23:00,82.0,74.0,29.93,SE,135,2.0,2.0,77,0.00,,,0.00,,2013-07-10 16:23:00,
2013-07-10 12:33:00,83.0,75.0,29.93,WSW,248,0.0,7.0,77,0.00,,,0.00,,2013-07-10 16:33:00,
2013-07-10 12:44:00,84.0,75.0,29.93,WSW,248,0.0,8.0,74,0.00,,,0.00,,2013-07-10 16:44:00,
2013-07-10 12:53:00,84.0,75.0,29.93,WSW,248,0.0,8.0,74,0.00,,,0.00,,2013-07-10 16:53:00,
2013-07-10 13:02:00,84.0,75.0,29.93,SE,135,5.0,7.0,75,0.00,,,0.00,,2013-07-10 17:02:00,
2013-07-10 15:42:00,86.0,74.0,29.87,SW,225,0.0,5.0,67,0.00,,,0.00,,2013-07-10 19:42:00,
2013-07-10 15:53:00,83.0,73.0,29.86,SE,135,0.0,10.0,71,0.00,,,0.00,,2013-07-10 19:53:00,
2013-07-10 16:02:00,82.0,73.0,29.86,SE,135,3.0,7.0,74,0.00,,,0.00,,2013-07-10 20:02:00,
2013-07-10 16:22:00,80.0,72.0,29.86,SSE,158,6.0,9.0,76,0.00,,,0.00,,2013-07-10 20:22:00,
2013-07-10 16:32:00,80.0,72.0,29.86,SSE,158,6.0,9.0,76,0.00,,,0.00,,2013-07-10 20:32:00,
2013-07-10 16:43:00,79.0,72.0,29.85,SE,144,4.0,8.0,78,0.00,,,0.00,,2013-07-10 20:43:00,
2013-07-10 17:01:00,78.0,72.0,29.84,SSE,158,4.0,8.0,81,0.00,,,0.00,,2013-07-10 21:01:00,
2013-07-10 17:12:00,78.0,72.0,29.84,SSE,148,6.0,7.0,82,0.00,,,0.00,,2013-07-10 21:12:00,
2013-07-10 17:22:00,77.0,71.0,29.84,SE,135,4.0,7.0,83,0.00,,,0.00,,2013-07-10 21:22:00,
2013-07-10 17:32:00,77.0,71.0,29.83,SSE,164,5.0,7.0,83,0.00,,,0.00,,2013-07-10 21:32:00,
2013-07-10 17:42:00,77.0,72.0,29.83,South,180,0.0,6.0,84,0.00,,,0.00,,2013-07-10 21:42:00,
2013-07-10 17:52:00,76.0,71.0,29.83,SE,135,5.0,6.0,84,0.00,,,0.00,,2013-07-10 21:52:00,
2013-07-10 18:01:00,76.0,71.0,29.83,SSW,203,0.0,3.0,85,0.00,,,0.00,,2013-07-10 22:01:00,
2013-07-10 18:11:00,76.0,72.0,29.83,SE,135,5.0,5.0,86,0.00,,,0.00,,2013-07-10 22:11:00,
2013-07-10 18:21:00,75.0,71.0,29.82,SSE,158,0.0,6.0,86,0.00,,,0.00,,2013-07-10 22:21:00,
2013-07-10 18:33:00,75.0,71.0,29.82,ESE,113,0.0,8.0,86,0.00,,,0.00,,2013-07-10 22:33:00,
2013-07-10 18:43:00,76.0,72.0,29.82,SSE,158,3.0,3.0,87,0.00,,,0.00,,2013-07-10 22:43:00,
2013-07-10 18:53:00,76.0,72.0,29.82,SSE,158,0.0,0.0,87,0.00,,,0.00,,2013-07-10 22:53:00,
2013-07-10 19:01:00,76.0,72.0,29.82,SSW,203,0.0,0.0,87,0.00,,,0.00,,2013-07-10 23:01:00,
2013-07-10 19:11:00,76.0,72.0,29.82,SE,135,0.0,0.0,87,0.00,,,0.00,,2013-07-10 23:11:00,
2013-07-10 19:22:00,76.0,72.0,29.81,SE,135,6.0,6.0,86,0.00,,,0.00,,2013-07-10 23:22:00,
2013-07-10 19:32:00,76.0,72.0,29.81,South,180,0.0,0.0,86,0.00,,,0.00,,2013-07-10 23:32:00,
2013-07-10 19:43:00,76.0,72.0,29.81,South,180,0.0,0.0,86,0.00,,,0.00,,2013-07-10 23:43:00,
2013-07-10 19:52:00,75.0,71.0,29.82,SE,135,0.0,4.0,87,0.00,,,0.00,,2013-07-10 23:52:00,
2013-07-10 20:01:00,75.0,71.0,29.83,WSW,248,0.0,0.0,87,0.00,,,0.00,,2013-07-11 00:01:00,
2013-07-10 20:11:00,75.0,71.0,29.83,West,270,0.0,4.0,87,0.00,,,0.00,,2013-07-11 00:11:00,
2013-07-10 20:22:00,75.0,71.0,29.84,SW,225,0.0,0.0,87,0.00,,,0.00,,2013-07-11 00:22:00,
2013-07-10 20:32:00,75.0,71.0,29.84,WSW,248,0.0,0.0,88,0.00,,,0.00,,2013-07-11 00:32:00,
2013-07-10 20:42:00,75.0,71.0,29.84,WSW,248,0.0,0.0,88,0.00,,,0.00,,2013-07-11 00:42:00,
2013-07-10 20:52:00,75.0,71.0,29.84,WSW,248,0.0,0.0,88,0.00,,,0.00,,2013-07-11 00:52:00,
2013-07-10 21:01:00,74.0,71.0,29.83,SE,135,2.0,7.0,89,0.00,,,0.00,,2013-07-11 01:01:00,
2013-07-10 21:11:00,74.0,71.0,29.83,SE,135,2.0,7.0,89,0.00,,,0.00,,2013-07-11 01:11:00,
2013-07-10 21:22:00,74.0,71.0,29.83,SE,135,0.0,3.0,89,0.00,,,0.00,,2013-07-11 01:22:00,
2013-07-10 21:32:00,74.0,71.0,29.83,SE,135,0.0,3.0,89,0.00,,,0.00,,2013-07-11 01:32:00,
2013-07-10 21:43:00,74.0,71.0,29.83,SE,135,0.0,3.0,89,0.00,,,0.00,,2013-07-11 01:43:00,
2013-07-10 21:52:00,74.0,71.0,29.83,SE,135,0.0,3.0,89,0.00,,,0.00,,2013-07-11 01:52:00,
2013-07-10 22:02:00,74.0,71.0,29.83,SE,135,0.0,3.0,89,0.00,,,0.00,,2013-07-11 02:02:00,